Regional Weather Roundup
Issued by NWS Jackson, KY

Home | Current Version | Previous Version | Text Only | Print | Product List | Glossary Off
Versions: 1 2 3 4 5 6 7 8 9 10 11 12 13 14 15 16 17 18 19 20 21 22 23 24 25 26 27 28

000
ASUS43 KJKL 031010
RWRJKL

EAST KENTUCKY HOURLY WEATHER ROUNDUP
NATIONAL WEATHER SERVICE JACKSON KY
600 AM EDT TUE MAY 03 2016

NOTE: "FAIR" INDICATES FEW OR NO CLOUDS BELOW 12,000 FEET WITH
NO SIGNIFICANT WEATHER AND/OR OBSTRUCTIONS TO VISIBILITY.

* THESE REPORTS ARE NOT UNDER NWS QUALITY CONTROL AND MAY NOT
  REPORT WEATHER SUCH AS PRECIPITATION AND FOG.

KYZ079-080-083-085-087-088-110-112-115-119-120-031100
...EASTERN KENTUCKY...

CITY           SKY/WX    TMP DP  RH WIND       PRES   REMARKS
JACKSON        CLOUDY    55  53  93 NW7       29.89S
LONDON         LGT RAIN  56  54  93 NW5       29.90S
SOMERSET*      CLOUDY    54  52  94 N3        29.93S
MONTICELLO*    CLOUDY    56  54  93 N10G17    29.94S
WILLIAMSBURG*  CLOUDY    55  55 100 CALM      29.91R
MIDDLESBORO*   CLOUDY    58  58 100 CALM      29.89R
HARLAN APT*    CLOUDY    57  55  94 CALM      29.88S
HAZARD APT*    CLOUDY    57  57 100 W6        29.89S
BLACK MTN*       N/A     52  52 100 VRB1        N/A
PIKE CO APT*   RAIN      57  57 100 CALM      29.88S VSB 1/4
BIG SANDY APT* LGT RAIN  58  58 100 CALM      29.87F
MOREHEAD APT*  CLOUDY    55  54  94 CALM      29.90F FOG
$$

KYZ035-036-041-042-044-050-067-078-099-031100
...CENTRAL KENTUCKY...

CITY           SKY/WX    TMP DP  RH WIND       PRES   REMARKS
MT STERLING*   CLOUDY    54  52  94 NW3       29.91S
FLEMING/MASON* CLOUDY    54  52  93 CALM      29.90S
DANVILLE*      CLOUDY    54  50  87 CALM      29.93R
RICHMOND*      CLOUDY    54  52  94 W3        29.91S
LEXINGTON      CLOUDY    55  50  83 CALM      29.90F
FRANKFORT      MOCLDY    54  49  83 CALM      29.90S
LOUISVILLE     CLOUDY    55  49  80 NW8       29.92S
LEBANON*       PTSUNNY   54  50  87 CALM      29.93S
BOWLING GREEN  CLOUDY    55  50  83 NW3       29.94S
$$

KYZ091>093-OHZ055-061-077-WVZ005-015-034-035-042-031100
...SOUTHERN OHIO/WEST VIRGINIA...

CITY           SKY/WX    TMP DP  RH WIND       PRES   REMARKS
COVINGTON      CLOUDY    54  51  90 N5        29.89F
COLUMBUS       CLOUDY    46  44  93 N5        29.90S
DAYTON         CLOUDY    48  45  89 N7        29.92S
WILMINGTON     LGT RAIN  49  47  93 NE3       29.89F
HUNTINGTON     CLOUDY    58  56  93 CALM      29.86F
CHARLESTON     LGT RAIN  60  57  89 SW7       29.85F
PINEVILLE*     LGT RAIN  58  56  91 MISG      29.92S
BECKLEY        LGT RAIN  55  54  96 W5        29.88S
$$

VAZ002-007-008-TNZ017-027-036-066-071-031100
...SOUTHWEST VIRGINIA/EAST TENNESSEE...

CITY           SKY/WX    TMP DP  RH WIND       PRES   REMARKS
WISE*          CLOUDY    55  55 100 CALM      29.90F
BRISTOL        LGT RAIN  59  57  93 NW3       29.88R
MORRISTOWN*    CLOUDY    61  59  94 CALM      29.87F
SEVIERVILLE*   PTSUNNY   59  59 100 CALM      29.87F
KNOXVILLE      CLOUDY    62  60  93 CALM      29.87S
OAK RIDGE      CLOUDY    61  59  93 CALM      29.89S
CROSSVILLE     CLOUDY    55  53  93 N8        29.92S FOG
NASHVILLE      CLOUDY    57  50  77 CALM      29.94F
$$

...KEY TO REMARKS...
VSB - VISIBILITY IN MILES
WCI - WIND CHILL INDEX
HX  - HEAT INDEX

$$




USA.gov is the U.S. government's official web portal to all federal, state and local government web resources and services.